This demonstration page uses our WeatherBlox Daily Observations layout. Learn more.

Left ArrowRight Arrow

Hourly Observations for March 25, 2018

Temp ( °F °C ) Dew Point ( °F °C ) Humidity (%) Winds ( mph kmh ) Pressure ( in mb ) Visibility ( mi km ) Precip ( " mm )
12:15 am 00:15 Clear 34 1 28 -2 81 81 N N/A 30.18 1022 10 16 N/A
12:35 am 00:35 Clear 34 1 27 -3 75 75 N N/A 30.18 1022 10 16 N/A
12:55 am 00:55 Clear 34 1 28 -2 81 81 N N/A 30.18 1022 10 16 N/A
1:15 am 01:15 Clear 32 undefined 28 -2 87 87 N N/A 30.18 1022 10 16 N/A
1:35 am 01:35 Clear 32 undefined 30 -1 93 93 SW 3 6 30.18 1022 10 16 N/A
1:55 am 01:55 Clear 32 undefined 28 -2 87 87 N N/A 30.18 1022 10 16 N/A
2:15 am 02:15 Clear 32 undefined 27 -3 80 80 W 3 6 30.18 1022 10 16 N/A
2:35 am 02:35 Clear 30 -1 27 -3 86 86 WNW 5 7 30.18 1022 10 16 N/A
2:55 am 02:55 Clear 32 undefined 27 -3 80 80 N 13 20 30.18 1022 10 16 N/A
3:15 am 03:15 Clear 34 1 27 -3 75 75 NNE 9 15 30.18 1022 10 16 N/A
3:35 am 03:35 Clear 34 1 27 -3 75 75 NNE 13 20 30.18 1022 10 16 N/A
3:55 am 03:55 Clear 34 1 27 -3 75 75 NNE 13 20 30.21 1023 10 16 N/A
4:15 am 04:15 Clear 34 1 25 -4 70 70 NNE 12 19 30.21 1023 10 16 N/A
4:35 am 04:35 Clear 34 1 25 -4 70 70 NNE 14 22 30.21 1023 10 16 N/A
4:55 am 04:55 Clear 34 1 25 -4 70 70 NNE 10 17 30.21 1023 10 16 N/A
5:15 am 05:15 Clear 32 undefined 23 -5 69 69 NNE 14 22 30.24 1024 10 16 N/A
5:35 am 05:35 Clear 32 undefined 23 -5 69 69 NNE 12 19 30.24 1024 10 16 N/A
5:55 am 05:55 Clear 32 undefined 23 -5 69 69 NNE 10 17 30.24 1024 10 16 N/A
6:15 am 06:15 Clear 32 undefined 21 -6 64 64 NNE 14 22 30.27 1025 10 16 N/A
6:35 am 06:35 Clear 32 undefined 19 -7 60 60 NNE 10 17 30.27 1025 10 16 N/A
6:55 am 06:55 Clear 30 -1 18 -8 59 59 NNE 12 19 30.27 1025 10 16 N/A
7:15 am 07:15 Sunny 30 -1 18 -8 59 59 NNE 10 17 30.30 1026 10 16 N/A
7:35 am 07:35 Sunny 30 -1 18 -8 59 59 NNE 13 20 30.30 1026 10 16 N/A
7:55 am 07:55 Sunny 30 -1 18 -8 59 59 NNE 13 20 30.30 1026 10 16 N/A
8:15 am 08:15 Sunny 30 -1 18 -8 59 59 NNE 15 24 30.33 1027 10 16 N/A
8:35 am 08:35 Sunny 32 undefined 18 -8 55 55 NNE 17 28 30.33 1027 10 16 N/A
8:55 am 08:55 Sunny 32 undefined 18 -8 55 55 NNE 14 22 30.33 1027 10 16 N/A
9:15 am 09:15 Sunny 32 undefined 18 -8 55 55 NNE 14 22 30.36 1028 10 16 N/A
9:35 am 09:35 Sunny 32 undefined 18 -8 55 55 NNE 12 19 30.36 1028 10 16 N/A
9:55 am 09:55 Sunny 34 1 18 -8 51 51 NNE 14 22 30.39 1029 10 16 N/A
10:15 am 10:15 Sunny 34 1 18 -8 51 51 NNE 16 26 30.39 1029 10 16 N/A
10:35 am 10:35 Partly Cloudy 34 1 18 -8 51 51 NE 12 19 30.39 1029 10 16 N/A
10:55 am 10:55 Partly Cloudy 36 2 18 -8 48 48 NE 14 22 30.42 1030 10 16 N/A
11:15 am 11:15 Mostly Cloudy 37 3 19 -7 48 48 NNE 13 20 30.42 1030 10 16 N/A
11:35 am 11:35 Mostly Cloudy 37 3 19 -7 48 48 NNE 14 22 30.42 1030 10 16 N/A
11:55 am 11:55 Partly Cloudy 37 3 19 -7 48 48 N 10 17 30.42 1030 10 16 N/A
12:15 pm 12:15 Sunny 37 3 21 -6 52 52 N 13 20 30.42 1030 10 16 N/A
12:35 pm 12:35 Sunny 39 4 23 -5 52 52 NE 13 20 30.42 1030 10 16 N/A
12:55 pm 12:55 Sunny 39 4 23 -5 52 52 NE 13 20 30.42 1030 10 16 N/A
1:15 pm 13:15 Partly Cloudy 41 5 25 -4 53 53 NNE 9 15 30.45 1031 10 16 N/A
1:35 pm 13:35 Mostly Cloudy 41 5 27 -3 57 57 NNE 12 19 30.42 1030 10 16 N/A
1:55 pm 13:55 Partly Cloudy 41 5 27 -3 57 57 NE 9 15 30.45 1031 10 16 N/A
2:15 pm 14:15 Mostly Cloudy 43 6 27 -3 53 53 N N/A 30.45 1031 10 16 N/A
2:35 pm 14:35 Mostly Cloudy 43 6 28 -2 57 57 NE 10 17 30.45 1031 10 16 N/A
2:55 pm 14:55 Partly Cloudy 45 7 30 -1 57 57 NE 12 19 30.45 1031 10 16 N/A
3:15 pm 15:15 Mostly Cloudy 45 7 30 -1 57 57 NNE 9 15 30.45 1031 10 16 N/A
3:35 pm 15:35 Cloudy 45 7 30 -1 57 57 NE 9 15 30.45 1031 10 16 N/A
3:55 pm 15:55 Mostly Cloudy 45 7 30 -1 57 57 NNE 9 15 30.45 1031 10 16 N/A
4:15 pm 16:15 Mostly Cloudy 45 7 30 -1 57 57 ENE 5 7 30.45 1031 10 16 N/A
4:35 pm 16:35 Partly Cloudy 45 7 30 -1 57 57 NE 10 17 30.45 1031 10 16 N/A
4:55 pm 16:55 Mostly Cloudy 45 7 32 undefined 61 61 NE 7 11 30.45 1031 10 16 N/A
5:15 pm 17:15 Mostly Cloudy 45 7 32 undefined 61 61 NE 9 15 30.45 1031 10 16 N/A
5:35 pm 17:35 Cloudy 45 7 32 undefined 61 61 NE 9 15 30.45 1031 10 16 N/A
5:55 pm 17:55 Cloudy 43 6 32 undefined 66 66 ENE 9 15 30.48 1032 10 16 N/A
6:15 pm 18:15 Partly Cloudy 43 6 32 undefined 66 66 ENE 9 15 30.48 1032 10 16 N/A
6:35 pm 18:35 Partly Cloudy 45 7 32 undefined 61 61 ENE 7 11 30.48 1032 10 16 N/A
6:55 pm 18:55 Mostly Cloudy 45 7 32 undefined 61 61 ENE 8 13 30.48 1032 10 16 N/A
7:15 pm 19:15 Cloudy 43 6 32 undefined 66 66 NE 8 13 30.50 1033 10 16 N/A
7:35 pm 19:35 Cloudy 43 6 32 undefined 66 66 NE 8 13 30.50 1033 10 16 N/A
7:55 pm 19:55 Cloudy 41 5 32 undefined 70 70 NE 6 9 30.50 1033 10 16 N/A
8:15 pm 20:15 Cloudy 41 5 32 undefined 70 70 NE 7 11 30.53 1034 10 16 N/A
8:35 pm 20:35 Cloudy with Drizzle 41 5 32 undefined 70 70 NE 7 11 30.53 1034 10 16 N/A
8:55 pm 20:55 Cloudy 41 5 32 undefined 70 70 NE 7 11 30.53 1034 10 16 N/A
9:15 pm 21:15 Cloudy 41 5 32 undefined 70 70 NE 6 9 30.53 1034 10 16 N/A
9:35 pm 21:35 Cloudy 39 4 32 undefined 75 75 NNE 5 7 30.53 1034 10 16 N/A
9:55 pm 21:55 Mostly Cloudy 39 4 32 undefined 75 75 NNE 3 6 30.53 1034 10 16 N/A
10:15 pm 22:15 Partly Cloudy 37 3 32 undefined 81 81 N N/A 30.53 1034 10 16 N/A
10:35 pm 22:35 Partly Cloudy 37 3 32 undefined 81 81 NE 3 6 30.53 1034 10 16 N/A
10:55 pm 22:55 Partly Cloudy 37 3 32 undefined 81 81 NE 3 6 30.56 1035 10 16 N/A
11:15 pm 23:15 Partly Cloudy 37 3 32 undefined 81 81 NE 3 6 30.56 1035 10 16 N/A
11:35 pm 23:35 Cloudy 36 2 32 undefined 87 87 N N/A 30.56 1035 10 16 N/A
11:55 pm 23:55 Partly Cloudy 36 2 32 undefined 87 87 N N/A 30.56 1035 10 16 N/A

Powered by AerisWeather